Location: *
(50.8512°N, 5.6907°E)
Time: 18:44:12
(UTC+00:00)

COSMOS 2455 - Pass Details

Date: 09 April 2020
Orbit: 899 x 910 km, 67.1° (Epoch: 02 June)

Event Time Altitude Azimuth Distance (km) Brightness Sun altitude
Rises 20:00:23 0° 320° (NW) 3,546 7.5 -14.8°
Reaches altitude 10° 20:02:58 10° 316° (NW) 2,602 6.6 -15.1°
Maximum altitude 20:08:44 49° 243° (WSW) 1,168 3.6 -15.9°
Enters shadow 20:13:55 13° 173° (S) 2,391 4.7 -16.5°
